Location: Circle Lane School (historical)
(41.2781°N, 96.3214°W)
Time: 03:58:18
(UTC+00:00)

Daily predictions for brighter satellites

Satellite Brightness Start Highest point End
(mag) Time Altitude Azimuth Time Altitude Azimuth Time Altitude Azimuth
Cosmos 1633 2.7 00:08:51 10° N 00:12:26 50° E 00:16:01 10° SSE
Okean 2 Rocket 3.8 00:09:21 10° NNE 00:13:26 32° ENE 00:17:30 10° SE
Cosmos 1486 Rocket 4.1 00:09:16 10° SSW 00:14:28 83° WNW 00:19:45 10° NNE
FENGYUN 3A 4.0 00:11:59 10° SE 00:16:59 40° ENE 00:22:00 10° N
Cosmos 44 3.8 00:16:10 10° NNW 00:20:28 35° NE 00:22:55 22° E
Cosmos 1464 Rocket 4.0 00:17:24 10° SSE 00:23:20 57° E 00:29:21 10° NNE
Cosmos 1908 Rocket 3.8 00:20:26 10° NNW 00:24:45 69° W 00:29:02 10° S
SKYMED 2 3.5 00:21:44 10° NNE 00:26:05 66° ESE 00:30:22 10° S
Cosmos 1833 Rocket 2.6 00:22:31 10° NNW 00:28:06 62° ENE 00:33:40 10° SE
Cosmos 2297 3.7 00:26:01 10° S 00:31:39 67° ESE 00:36:13 16° NNE
Cosmos 1354 Rocket 3.9 00:26:32 10° S 00:31:47 72° ESE 00:36:22 14° NNE
ALOS 2.3 00:28:23 10° SSE 00:32:55 54° ENE 00:37:29 10° N
SPOT 3 Rocket 3.5 00:29:19 10° SSE 00:34:28 67° ENE 00:39:39 10° N
Cosmos 2278 Rocket 3.1 00:30:54 10° SW 00:36:22 48° WNW 00:41:52 10° NNE
Meteor 1-11 Rocket 4.0 00:34:26 10° N 00:40:05 47° ENE 00:45:35 10° SSE
Sich 1 Rocket 4.3 00:37:32 10° NNW 00:41:52 55° W 00:46:13 10° S
CENTAUR R/B 4.2 00:36:51 10° W 00:42:09 27° NW 00:48:04 10° NNE
CZ-4 R/B 3.2 00:40:36 10° SSW 00:44:04 31° W 00:47:32 10° NNW
COSMOS 2455 4.5 00:42:06 10° WSW 00:47:16 29° NW 00:52:30 10° NNE
Cosmos 1441 Rocket 3.3 00:45:42 10° S 00:49:22 56° ESE 00:49:22 56° ESE
Cosmos 1606 3.7 00:46:01 10° SSW 00:49:40 46° W 00:53:19 10° N
Okean 1-7 3.4 00:47:42 10° SSW 00:52:02 64° W 00:56:26 10° N
NOAA 12 4.0 00:50:01 10° SSE 00:55:21 89° ENE 01:00:42 10° NNW
EO 1 Del DPAF 4.0 00:54:40 15° N 00:57:41 50° WNW 01:01:23 10° SSW
CZ-4C R/B 2.9 00:59:39 10° NNW 01:06:41 58° NE 01:09:18 40° ESE
Thor Agena Rocket 3.8 01:08:07 48° SE 01:08:07 48° SE 01:12:17 10° S
COSMO-SKYMED 1 4.0 01:10:04 10° N 01:14:03 36° WNW 01:18:01 10° SW
Cosmos 1602 4.3 01:11:15 10° NNW 01:15:01 56° W 01:18:46 10° S
Cosmos 2082 Rocket 2.9 01:10:45 10° NNW 01:16:17 55° WSW 01:21:46 10° S
Cosmos 405 Rocket 3.9 01:19:14 10° SSW 01:22:49 40° WNW 01:23:03 39° WNW
FengYun 1-2 T 4.2 01:30:01 33° S 01:32:37 82° WSW 01:38:13 10° NNW
Cosmos 44 Rocket 3.7 01:28:59 10° NW 01:33:48 60° WSW 01:33:54 60° SW
Nadezhda 4 Rocket 4.1 01:30:11 10° NNW 01:36:17 71° W 01:42:21 10° S
Cosmos 968 Rocket 3.7 01:33:50 10° SSW 01:38:30 65° WSW 01:38:30 65° WSW
Lacrosse 5 4.3 01:37:43 10° NNW 01:38:55 13° N 01:38:55 13° N
USA 234 3.5 01:42:57 51° NNE 01:44:18 62° NW 01:50:44 10° WSW
Timation 2 Rocket 4.0 01:37:44 10° NNW 01:44:32 84° WSW 01:45:05 76° S
Cosmos 1092 Rocket 4.3 01:47:15 10° N 02:01:52 - S 01:52:09 58° NNW
CZ-4C R/B 4.2 02:48:34 10° NW 02:54:35 35° WSW 02:54:35 35° WSW
USA 229 DEB 4.0 10:11:44 66° ENE 10:11:44 66° ENE 10:18:38 10° SE
USA 229 4.0 10:11:47 66° ENE 10:11:47 66° ENE 10:18:44 10° SE
Cosmos 2123 Rocket 4.4 10:24:36 59° NE 10:24:36 59° NE 10:29:51 10° NNE
Cosmos 1725 Rocket 4.2 10:24:57 65° E 10:24:57 65° E 10:30:52 10° SSE
Meteor 2-12 Rocket 4.5 10:35:05 69° NE 10:35:34 73° E 10:41:37 10° SSE
Meteor 2-3 Rocket 4.0 10:37:36 10° S 10:43:18 67° E 10:48:58 10° NNE
SL-16 R/B 3.4 10:46:13 31° N 10:46:13 31° N 10:49:10 10° NNE
Cosmos 1603 4.5 10:43:26 10° S 10:48:50 50° ESE 10:54:19 10° NE
Lacrosse 5 rocket 3.0 10:51:37 31° NNE 10:51:37 31° NNE 10:54:09 10° NE
IRS-1C Rocket 4.2 10:45:52 10° NNE 10:51:08 72° ESE 10:56:22 10° S
Atlas Centaur 2 4.0 10:52:31 27° SSW 10:53:29 28° SSW 11:00:16 10° SE
CZ-2C R/B 3.9 10:56:52 10° SSE 11:01:17 65° ENE 11:01:55 57° NNE
SL-8 R/B 3.7 11:02:15 73° SE 11:02:15 73° SE 11:06:55 10° ENE
CZ-4B R/B 3.1 11:00:16 10° N 11:05:56 74° WNW 11:09:06 27° SSW
Cosmos 2369 Rocket 3.4 11:02:00 15° N 11:06:13 38° ENE 11:11:25 10° SE
USA 32 3.9 11:07:02 10° S 11:12:15 87° W 11:17:31 10° N
Cosmos 1782 3.5 11:12:32 27° NNE 11:14:22 51° E 11:18:13 10° SSE
Cosmos 405 Rocket 4.3 11:15:42 13° NNE 11:18:38 34° ENE 11:22:04 10° SE
Cosmos 1900 4.4 11:16:36 29° SSW 11:19:19 87° ESE 11:24:31 10° NNE
PSLV R/B 4.3 11:20:46 42° E 11:20:46 42° E 11:23:00 10° E
Meteor 1-26 Rocket 4.3 11:20:08 50° W 11:20:08 50° W 11:25:25 10° SSW
SKYMED 2 4.3 11:16:27 10° SSE 11:20:38 51° ENE 11:24:52 10° N
Meteor 1-28 Rocket 3.7 11:19:22 10° S 11:22:09 47° S 11:22:09 47° S
Celestis-02/Orion 38 4.5 11:19:09 10° SSE 11:24:19 89° ENE 11:27:03 29° NNW
CZ-3B R/B 4.2 11:30:34 27° E 11:30:34 27° E 11:31:35 10° ENE
Cosmos 2233 Rocket 3.9 11:26:36 10° NNW 11:32:37 59° W 11:38:36 10° S
DELTA 2 R/B (1) 4.0 11:31:05 37° WSW 11:32:45 49° SSW 11:38:07 10° SE
CZ-2C R/B 4.0 11:28:54 10° NNE 11:33:43 39° E 11:38:25 10° SSE
Landsat 4 3.6 11:31:19 10° S 11:34:54 60° WSW 11:34:54 60° WSW
Cosmos 1992 Rocket 4.4 11:36:31 39° WNW 11:36:38 39° WNW 11:41:32 10° N
Cosmos 1943 Rocket 3.3 11:31:22 10° NNW 11:36:47 43° ENE 11:42:09 10° SE
EO 1 Del DPAF 3.2 11:35:19 10° SSE 11:39:08 85° ENE 11:41:55 18° N
NOSS 3-1 (C) 4.1 11:34:45 22° NW 11:40:05 70° WSW 11:48:31 10° SSE
Cosmos 2221 Rocket 3.6 11:38:33 10° N 11:43:03 83° E 11:47:33 10° S
Cosmos 1703 Rocket 3.5 11:43:16 23° NNW 11:45:49 56° W 11:50:03 10° S
Okean-O 2.5 11:44:33 10° N 11:49:00 77° WNW 11:53:26 10° SSW
Cosmos 1862 3.7 11:45:20 10° S 11:49:14 65° E 11:53:10 10° NNE
Cosmos 1869 Rocket 3.4 11:46:09 10° SSW 11:50:29 66° W 11:54:53 10° N
Cosmos 1943 3.2 11:45:00 10° SSW 11:50:41 86° ESE 11:56:24 10° NNE
ATLAS 2AS CENTAUR R/B 4.4 11:44:37 10° NNW 11:51:35 31° NE 11:58:09 10° E
Cosmos 1825 2.3 11:47:58 10° SSW 11:51:36 46° W 11:55:16 10° N
ATLAS 5 CENTAUR R/B 1.7 11:47:33 10° SSW 11:52:06 89° SE 11:57:08 10° NE
MTI 4.1 11:50:44 10° S 11:53:41 41° WSW 11:53:41 41° WSW
Hubble Space Telescope 3.3 11:52:44 10° SSW 11:54:03 11° S 11:55:23 10° S
